Back to catalog

STARLINK-11342

AliveCommunicationsVLEO
NORAD 61580·PAYLOAD·🇺🇸 United States

Launched Oct 18, 2024 from Cape Canaveral Space Force Station

Loading…

Next Passes (next 24 hours)

TLE

FreshSource: CelesTrak SupGP

Epoch: Sep 15, 2026, 02:23 UTC

1 61580C 24187G   26258.09979167  .00011933  00000+0  98222-4 0  2584
2 61580  53.1567  82.2127 0001025  78.3506 282.1008 15.69722303    18

Track STARLINK-11342 in real time with AllMySat

Download on the App Store